Regional Weather Roundup
Issued by NWS Sterling, VA

Home | Current Version | Previous Version | Graphics & Text | Print | Product List | Glossary On
Versions: 1 2 3 4 5 6 7 8 9 10 11 12 13 14 15 16 17 18 19 20 21 22 23 24 25 26 27 28 29 30 31 32 33 34 35 36 37 38 39 40 41 42 43 44 45 46 47 48 49 50
000
ASUS41 KLWX 091210
RWRLWX

REGIONAL WEATHER ROUNDUP
NATIONAL WEATHER SERVICE BALTIMORE MD/WASHINGTON DC
700 AM EST FRI DEC 09 2016

Note: "FAIR" indicates few or no clouds below 12,000 feet
with no significant weather and/or obstructions to visibility.
 TC=TEMPERATURE CELSIUS

 * =Non NWS site. Station does not report precipitation (e.g. rain,
    snow, etc.), thunder, or fog.

DCZ001-MDZ009-015-VAZ040>042-051-053>054-091300-
WASHINGTON METRO

CITY           SKY/WX    TMP DP  RH WIND       PRES   REMARKS
WASHINGTON NAT CLEAR     31  13  47 NW18G25   30.29R WCI  19
DULLES         CLEAR     28  12  51 NW14      30.28R WCI  17
ANDREWS AFB    CLEAR     29  12  50 NW13      30.26R WCI  18
FT BELVOIR     CLEAR     29  12  47 NW14      30.29R WCI  19
QUANTICO       CLEAR     30  13  49 W5        30.32R
COLLEGE PARK*  CLEAR     30  12  47 W7        30.27R
LEESBURG*      CLEAR     30  19  64 NW20G25   30.28R WCI  18
MANASSAS*      CLEAR    N/A N/A N/A N12       30.29
GAITHERSBURG*  CLEAR     27  10  50 NW9G23    30.28R WCI  17

$$

MDZ006>007-011-014-091300-
BALTIMORE METRO

CITY           SKY/WX    TMP DP  RH WIND       PRES   REMARKS
BWI AIRPORT    CLEAR     28  15  58 W14G22    30.25R WCI  17
MD SCIENCE CTR   N/A     30  13  49 MISG      30.25R
MARTIN STATE   CLEAR     30  18  59 W13G21    30.25S WCI  20
ANNAPOLIS      CLEAR     31  15  52 W9G18     30.25R WCI  23
FORT MEADE*    CLEAR     28  16  59 W12       30.29R WCI  18

$$

MDZ012-015-019>023-091300-
MARYLAND EASTERN SHORE

CITY           SKY/WX    TMP DP  RH WIND       PRES   REMARKS
OCEAN CITY     CLEAR     29  17  61 NW8       30.24R WCI  21
SALISBURY      CLEAR     30  16  56 W10       30.24R WCI  21
BAY BRIDGE AP* CLEAR     30  16  55 MISG      30.25R
CAMBRIDGE*     CLEAR     30  16  55 NW10G20   30.25S WCI  21
EASTON*        CLEAR     30  16  55 NW12G21   30.29R WCI  21

$$

MDZ017>025-091300-
SOUTHERN MARYLAND

CITY           SKY/WX    TMP DP  RH WIND       PRES   REMARKS
PATUXENT RIVER PTCLDY    29  14  53 W12       30.28R WCI  19
ST INIGOES     CLEAR     31  15  52 NW8G20    30.27R WCI  23
LEONARDTOWN*   CLEAR     30  14  51 W9        30.28R WCI  22

$$

MDZ003>005-091300-
NORTH CENTRAL MARYLAND

CITY           SKY/WX    TMP DP  RH WIND       PRES   REMARKS
FREDERICK*     CLEAR     27  16  63 W9        30.30R WCI  17
HAGERSTOWN APT PTCLDY    27  14  58 W15       30.24R WCI  15
WESTMINSTER*     N/A     25  14  63 W13       30.21S WCI  13

$$

MDZ501>502-091300-
WESTERN MARYLAND

CITY           SKY/WX    TMP DP  RH WIND       PRES   REMARKS
OAKLAND*       CLOUDY    14  14 100 W13G20    30.16R FOG     WCI   0
CUMBERLAND*    NOT AVBL

$$

VAZ025>031-091300-
SHENANDOAH VALLEY

CITY           SKY/WX    TMP DP  RH WIND       PRES   REMARKS
WINCHESTER*    CLEAR     27  12  54 NW16G23   30.28R WCI  14
FRONT ROYAL*   FAIR      28  12  50 SW3       30.28R
LURAY*         FAIR      28  16  59 W9        30.29S WCI  20
NEW MARKET*    FAIR      24  10  56 CALM      30.28F
STAUNTON*      PTCLDY    23  10  58 W3        30.31R
WAYNESBORO*    FAIR      23   8  51 W8        30.28R WCI  14

$$

WVZ021-048>050-054>055-091300-
EASTERN WEST VIRGINIA PANHANDLE

CITY           SKY/WX    TMP DP  RH WIND       PRES   REMARKS
MARTINSBURG    PTCLDY    27  13  55 NW16      30.28R WCI  15
PETERSBURG*    PTCLDY    28  14  54 W8        30.32R WCI  20

$$

VAZ036>039-050-091300-
CENTRAL FOOTHILLS

CITY           SKY/WX    TMP DP  RH WIND       PRES   REMARKS
CHARLOTTESVILL CLEAR     29  10  45 NW7       30.31R
CULPEPER*      CLEAR     29  12  49 W3        30.30R
ORANGE*          N/A     27  16  63 CALM      30.32R
GORDONSVILLE*  FAIR      28  12  51 CALM      30.31R
WARRENTON*     FAIR      24  11  56 CALM      30.29R

$$

VAZ055>057-091300-
NORTH AND CENTRAL PIEDMONT

CITY           SKY/WX    TMP DP  RH WIND       PRES   REMARKS
FREDERICKSBRG* CLEAR     30  15  54 NW14G21   30.30R WCI  20
STAFFORD*      CLEAR     28  13  53 W6        30.35R

$$

NCZ024-NYZ072-PAZ021-071-VAZ022-071-091300-
OTHER REGIONAL OBSERVATIONS

CITY           SKY/WX    TMP DP  RH WIND       PRES   REMARKS
NEW YORK CITY    N/A     34  19  55 MISG        N/A
PHILADELPHIA   PTCLDY    31  16  54 W12       30.19R WCI  22
PITTSBURGH     FLURRIES  23  17  78 W8G20     30.29R WCI  14
ROANOKE        MOCLDY    25  10  53 NW16      30.37R WCI  12
RICHMOND       CLEAR     28  15  58 NW7       30.30R
RALEIGH        PTCLDY    30  15  53 CALM      30.33R

$$

ANZ530>537-091300-
MARINE OBSERVATIONS

STATION/POSITION TIME  TEMP    WIND        PRES
                       AIR SEA DIR/SP/G
                 (UTC) (F)     (DEG/KT/KT) (MB)
THOMAS PT LIGHT  1200   31 47  290/ 20/ 24   N/A
BALT KEY BRIDGE  1142   31     270/ 19/ 22 1023.7S
COVE POINT       1142   31     340/ 15/ 20 1025.5R
LEWISETTA        1142   33 46  330/ 14/ 19 1024.9R
SOLOMONS ISLAND  1142   32 49  300/  7/ 12   N/A
PINEY POINT      1142          330/ 25/ 30   N/A

$$




USA.gov is the U.S. government's official web portal to all federal, state and local government web resources and services.